Tracking 19199 objects as of 25-Jun-2018
HD Live streaming from Space Station
objects crossing your sky now

EKRAN 6

Track EKRAN 6 now!
EKRAN 6 is classified as:


NORAD ID: 12120
Int'l Code: 1980-104A
Perigee: 35,748.1 km
Apogee: 35,812.8 km
Inclination: 12.6 °
Period: 1,435.4 minutes
Semi major axis: 42151 km
RCS: 6.3095 m2 (large)
Launch date: December 26, 1980
Source: Commonwealth of Independent States (former USSR) (CIS)
Launch site: TYURATAM MISSILE AND SPACE COMPLEX (TTMTR)
aabbcc
Your satellite tracking list
Your tracking list is empty




NASA's NSSDC Master Catalog

Two Line Element Set (TLE):
1 12120U 80104A   18175.87791604 -.00000218 +00000-0 +00000-0 0  9995
2 12120 012.5925 322.2369 0007672 352.8724 359.1218 01.00319308098182
Source of the keplerian elements: AFSPC